Flag for Mexico Weather past 2 weeks in Mexicali, Baja California, Mexico

Now
82 °F

Sunny.


Feels Like: 81 °F
Forecast: 66 / 85 °F
Wind: 8 mph from Southeast

Location: Imperial County Airport


UV Index: 7 (High)

Visibility: 10 mi


Pressure: 29.79 "Hg

Humidity: 32%

Dew point: 49 °F

Location of MexicaliLocation

Historic Weather in Mexicali

°F

Mexicali temperature yesterday

Maximum temperature yesterday: 87 °F (at 2:53 PM)
Minimum temperature yesterday: 59 °F (at 5:53 AM)
Average temperature yesterday: 74 °F

Past Weeks' High & Low Weather Summary

 TemperatureHumidityPressure
High98 °F (Apr 9, 2:53 PM)69% (Apr 14, 2:53 AM)30.11 "Hg (Apr 14, 2:53 AM)
Low50 °F (Apr 4, 5:53 AM)4% (Apr 10, 2:53 PM)29.61 "Hg (Apr 16, 6:53 PM)
Average74 °F28%29.86 "Hg
* Reported Apr 3 2:53 PM — Apr 18 2:53 PM, Mexicali, Weather by CustomWeather, © 2014

Note: Actual official high and low records may vary slightly from our data, if they occured in-between our weather recording intervals... More about our weather records

Advertising

Historic Weather Conditions — Data for Previous 24 hours

 ConditionsComfort  
Time TempWeatherWind HumidityBarometerVisibility
2:53 PM
Apr 18
82 °FSunny.8 mph32%29.79 "Hg10 mi
1:53 PM83 °FSunny.5 mph36%29.80 "Hg10 mi
12:53 PM81 °FSunny.7 mph41%29.81 "Hg10 mi
11:53 AM79 °FSunny.7 mph47%29.83 "Hg10 mi
10:53 AM78 °FSunny.7 mph50%29.83 "Hg10 mi
9:53 AM74 °FSunny.3 mph60%29.82 "Hg10 mi
8:53 AM71 °FSunny.3 mph66%29.80 "Hg10 mi
7:53 AM68 °FSunny.10 mph68%29.81 "Hg10 mi
6:53 AM66 °FClear.6 mph65%29.77 "Hg10 mi
5:53 AM66 °FClear.7 mph63%29.76 "Hg10 mi
4:53 AM65 °FClear.9 mph61%29.74 "Hg10 mi
3:53 AM66 °FClear.8 mph65%29.75 "Hg10 mi
2:53 AM65 °FClear.5 mph66%29.74 "Hg10 mi
1:53 AM67 °FClear.7 mph68%29.75 "Hg10 mi
12:53 AM68 °FClear.8 mph63%29.76 "Hg10 mi
11:53 PM
Apr 17
70 °FClear.8 mph53%29.75 "Hg10 mi
10:53 PM72 °FClear.5 mph37%29.75 "Hg10 mi
9:53 PM74 °FClear.13 mph32%29.75 "Hg10 mi
8:53 PM77 °FClear.12 mph26%29.76 "Hg10 mi
7:53 PM79 °FSunny.9 mph25%29.75 "Hg10 mi
6:53 PM80 °FSunny.13 mph27%29.74 "Hg10 mi
5:53 PM83 °FSunny.14 mph31%29.75 "Hg10 mi
4:53 PM86 °FSunny.16 mph21%29.75 "Hg10 mi
3:53 PM87 °FSunny.13 mph24%29.76 "Hg10 mi
Weather by CustomWeather, © 2014

See weather overview